Location: Acequia del Cap
(41.7000°N, 0.6167°E)
Time: 17:05:04
(UTC+00:00)

Cosmos 1553 Rocket - Pass Details

Date: 07 August 2020
Orbit: 942 x 1007 km, 82.9° (Epoch: 23 September)

Event Time Altitude Azimuth Distance (km) Brightness Sun altitude
Exits shadow 04:04:53 - 195° (SSW) 3,467 6.4 -9.6°
Reaches altitude 10° 04:07:02 10° 198° (SSW) 2,652 5.8 -9.3°
Maximum altitude 04:13:02 64° 280° (W) 1,038 4.0 -8.3°
Drops below altitude 10° 04:19:06 10° 2° (N) 2,679 6.8 -7.4°
Sets 04:21:38 0° 5° (N) 3,634 7.5 -6.9°
